775  
NZUS59 KLOT 241009  
HRRLOT  
 
CHICAGO AREA WEATHER ROUNDUP  
NATIONAL WEATHER SERVICE CHICAGO/ROMEOVILLE IL  
500 AM CDT SUN JUN 24 2018  
 
NOTE: "FAIR" INDICATES FEW OR NO CLOUDS BELOW 12,000 FEET WITH NO  
SIGNIFICANT WEATHER AND/OR OBSTRUCTIONS TO VISIBILITY.  
 
* THESE STATIONS ARE NOT UNDER NWS QUALITY CONTROL. THEY ALSO MAY NOT  
REPORT WEATHER SUCH AS PRECIPITATION OR FOG.  
 
ILZ005-006-012>014-019>023-241100-  
NORTHEAST ILLINOIS  
 
CITY SKY/WX TMP DP RH WIND PRES REMARKS  
OHARE MOCLDY 65 54 67 W5 29.85R  
MIDWAY MOCLDY 68 66 93 W5 29.85R  
AURORA N/A 62 62 100 NW5 29.86R FOG  
LANSING* N/A 64 64 100 CALM 29.86R  
JOLIET* FOG 64 64 100 CALM 29.87R VSB 1  
WAUKEGAN N/A 62 55 77 W3 29.84R  
DUPAGE AIRPORT N/A 63 60 90 CALM 29.86R  
WHEELING N/A 65 56 72 CALM 29.86R  
KANKAKEE* N/A 63 62 97 SW3 29.88R  
MORRIS* N/A 62 61 97 W3 29.86R FOG  
LEWIS AIRPORT* FOG 63 63 100 CALM 29.87R VSB 1/2  
NORTHERLY ISL N/A 68 60 75 W10 N/A  
NORTHERLY IS NOT AVBL  
NORTHERLY ISL NOT AVBL  

 
 
WIZ051-052-058>065-066-070>072-241100-  
SOUTHEAST WISCONSIN  
 
CITY SKY/WX TMP DP RH WIND PRES REMARKS  
MILWAUKEE MOCLDY 64 59 83 NE9 29.86R  
KENOSHA* N/A 61 55 81 W3 29.85R  
RACINE* N/A 63 57 81 CALM 29.87R  
BURLINGTON N/A 60 55 84 SW3 29.86S  
WAUKESHA N/A 59 54 82 W3 29.87R  
WEST BEND N/A 59 59 100 CALM 29.87R  

 
 
INZ001>003-010>013-019-020-241100-  
NORTHWEST INDIANA  
 
CITY SKY/WX TMP DP RH WIND PRES REMARKS  
GARY* MOCLDY 66 66 100 SW3 29.86R  
MICHIGAN CITY* NOT AVBL  
RENSSELAER* NOT AVBL  
VALPARAISO N/A 66 64 93 W5 29.86R  

 
 
LMZ740>746-241100-  
SOUTHERN LAKE MICHIGAN  
 
STATION/POSITION TIME SKY/WX TEMP WIND PRES VSBY  
AIR DIR/SP/G  
(UTC) (F) (DEG/KT/KT) (MB) (MI)  
HARRISON CRIB 0940 68 290/ 8/ 8 N/A  
NORTHERLY ISL 1000 68 240/ 7/ 9 N/A  
CALUMET HARBOR 0948 67 240/ 3/ 4 1010.3R  
BURNS HARBOR 0940 67 CALM 1011.2R  
MICHIGAN CITY NOT AVBL  

 
 
ABBREVIATIONS USED IN REMARKS  
TC - TEMPERATURE IN CELSIUS  
WCI - WIND CHILL INDEX  
HX - HEAT INDEX  
VSB - VISIBILITY  

 
 
 
CLICK HERE TO GO TO PREVIOUS BULLETINS.

The Nexlab IL Page
The Nexlab IN Page Main Text Page